Salt Lake City, UT

8:23 AM MDT on May 30, 2017 (GMT -0600)
Salt Lake City International

Weather History for KSLC - January, 2013

Change the Weather History Date:

Sunday, January 20, 2013

  Actual Average Record
Temperature  
Mean Temperature 13 °F 30 °F  
Max Temperature 20 °F 38 °F 58 °F (1953)
Min Temperature 6 °F 22 °F -20 °F (1883)
Degree Days  
Heating Degree Days 52 35  
Month to date heating degree days 969 719  
Since 1 July heating degree days 2784 3013  
Cooling Degree Days 0 0  
Month to date cooling degree days 0 0  
Year to date cooling degree days 0 0  
Moisture  
Dew Point 8 °F    
Average Humidity 80    
Maximum Humidity 92    
Minimum Humidity 67    
Precipitation  
Precipitation T in 0.04 in 0.61 in (1875)
Month to date precipitation 0.59 0.83  
Year to date precipitation 0.59 0.83  
Snow  
Snow T in 0.40 in 9.70 in (1962)
Month to date snowfall 10.5 8.5  
Since 1 July snowfall 39.1 30.7  
Snow Depth 4.00 in    
Sea Level Pressure  
Sea Level Pressure 30.60 in    
Wind  
Wind Speed 3 mph (NNW)    
Max Wind Speed 10 mph    
Max Gust Speed 11 mph    
Visibility 2 miles    
Events Snow    
T = Trace of Precipitation, MM = Missing Value Source: NWS Daily Summary

Daily Weather History Graph

Daily Weather History Graph

Search for Another Location

Airport or City:

Trip Planner

Search our weather history database for the weather conditions in past years. The results will help you decide how hot, cold, wet, or windy it might be!

Date:

Astronomy

Jan. 20, 2013 Rise Set
Actual Time 7:47 AM MST 5:31 PM MST
Civil Twilight 7:17 AM MST 6:01 PM MST
Nautical Twilight 6:44 AM MST 6:34 PM MST
Astronomical Twilight 6:11 AM MST 7:07 PM MST
Moon 12:34 PM MST (1/20) 2:22 AM MST (1/20)
Length of Visible Light 10h 43m
Length of Day
9h 43m
Waxing Gibbous, 67% of the Moon is Illuminated
Jan 20
Waxing Gibbous
Jan 26
Full
Feb 3
Last Quarter
Feb 10
New
Feb 17
First Quarter

Hourly Weather History & Observations

Time (MST) Temp. Windchill Dew Point Humidity Pressure Visibility Wind Dir Wind Speed Gust Speed Precip Events Conditions
12:00 AM 12.9 °F 6.9 °F 10.0 °F 88% 30.51 in 2.0 mi WSW 3.5 mph - N/A   Overcast
12:53 AM 14.0 °F - 10.9 °F 88% 30.66 in 2.0 mi Calm Calm - N/A   Overcast
1:36 AM 14.0 °F - 10.0 °F 84% 30.51 in 2.0 mi Calm Calm - 0.00 in   Overcast
1:53 AM 12.9 °F - 10.0 °F 88% 30.65 in 2.0 mi Calm Calm - 0.00 in   Overcast
2:53 AM 12.9 °F - 10.0 °F 88% 30.65 in 2.0 mi Calm Calm - N/A   Overcast
3:00 AM 12.0 °F 5.9 °F 9.0 °F 88% 30.51 in 1.5 mi South 3.5 mph - 0.00 in Snow Light Snow
3:18 AM 12.9 °F - 10.0 °F 88% 30.50 in 2.0 mi Calm Calm - 0.00 in   Overcast
3:29 AM 10.9 °F - 9.0 °F 92% 30.50 in 1.5 mi Calm Calm - 0.00 in   Overcast
3:53 AM 12.9 °F - 9.0 °F 84% 30.64 in 2.0 mi Calm Calm - 0.00 in   Overcast
4:00 AM 12.0 °F - 9.0 °F 88% 30.50 in 1.5 mi Calm Calm - N/A   Overcast
4:53 AM 10.9 °F 2.9 °F 8.1 °F 88% 30.66 in 1.8 mi WSW 4.6 mph - N/A   Overcast
5:05 AM 10.0 °F - 7.0 °F 87% 30.50 in 2.0 mi Calm Calm - N/A   Overcast
5:53 AM 10.0 °F - 5.0 °F 80% 30.68 in 2.0 mi Calm Calm - N/A   Haze
6:13 AM 10.0 °F - 7.0 °F 87% 30.51 in 1.8 mi Calm Calm - N/A   Overcast
6:29 AM 10.0 °F - 7.0 °F 87% 30.50 in 2.0 mi Calm Calm - N/A   Overcast
6:53 AM 9.0 °F - 6.1 °F 88% 30.69 in 2.0 mi Calm Calm - N/A   Overcast
7:53 AM 10.0 °F - 7.0 °F 87% 30.70 in 0.8 mi Calm Calm - N/A   Overcast
8:06 AM 10.0 °F - 6.1 °F 84% 30.51 in 1.0 mi Calm Calm - N/A   Overcast
8:53 AM 10.9 °F - 9.0 °F 92% 30.71 in 1.0 mi Calm Calm - N/A   Mostly Cloudy
9:26 AM 12.9 °F - 9.0 °F 84% 30.53 in 1.0 mi Calm Calm - N/A   Scattered Clouds
9:53 AM 15.1 °F - 14.0 °F 95% 30.72 in 1.0 mi Calm Calm - N/A   Scattered Clouds
10:16 AM 16.0 °F 10.4 °F 12.0 °F 84% 30.54 in 1.5 mi NW 3.5 mph - N/A   Scattered Clouds
10:53 AM 17.1 °F - 12.0 °F 81% 30.70 in 1.5 mi Calm Calm - N/A   Haze
11:31 AM 17.1 °F 11.7 °F 12.9 °F 84% 30.54 in 3.0 mi NNW 3.5 mph - N/A   Mostly Cloudy
11:53 AM 18.0 °F - 12.0 °F 78% 30.67 in 3.0 mi Calm Calm - N/A   Haze
12:53 PM 18.0 °F 7.7 °F 10.9 °F 74% 30.65 in 3.0 mi North 8.1 mph - N/A   Haze
1:53 PM 19.0 °F 10.0 °F 10.9 °F 71% 30.63 in 5.0 mi WNW 6.9 mph - N/A   Haze
2:53 PM 19.0 °F 11.1 °F 12.0 °F 74% 30.63 in 6.0 mi North 5.8 mph - N/A   Haze
3:53 PM 19.0 °F 13.9 °F 10.9 °F 71% 30.61 in 3.0 mi NNW 3.5 mph - N/A   Haze
4:53 PM 15.1 °F 4.2 °F 9.0 °F 77% 30.63 in 3.0 mi North 8.1 mph - N/A   Haze
5:53 PM 9.0 °F -4.2 °F 6.1 °F 88% 30.66 in 4.0 mi North 9.2 mph - N/A   Partly Cloudy
6:53 PM 8.1 °F -2.0 °F 6.1 °F 92% 30.67 in 2.5 mi North 5.8 mph - N/A   Clear
7:11 PM 8.1 °F -3.2 °F 6.1 °F 92% 30.48 in 3.0 mi North 6.9 mph - N/A   Partly Cloudy
7:23 PM 8.1 °F -3.2 °F 6.1 °F 92% 30.48 in 2.5 mi North 6.9 mph - N/A   Partly Cloudy
7:39 PM 7.0 °F -5.7 °F 5.0 °F 92% 30.48 in 3.0 mi North 8.1 mph - N/A   Partly Cloudy
7:53 PM 7.0 °F -6.6 °F 5.0 °F 92% 30.68 in 3.0 mi North 9.2 mph - N/A   Partly Cloudy
8:50 PM 8.6 °F - 6.8 °F 92% 30.49 in 3.0 mi Calm Calm - N/A   Mostly Cloudy
8:53 PM 10.0 °F - 6.1 °F 84% 30.67 in 3.0 mi Calm Calm - N/A   Mostly Cloudy
9:43 PM 9.0 °F - 6.1 °F 88% 30.49 in 2.5 mi Calm Calm - N/A   Overcast
9:51 PM 8.6 °F 2.0 °F 6.8 °F 92% 30.50 in 2.0 mi NW 3.5 mph - N/A   Mostly Cloudy
9:53 PM 9.0 °F - 6.1 °F 88% 30.67 in 2.0 mi Calm Calm - N/A   Mostly Cloudy
10:04 PM 9.0 °F - 7.0 °F 92% 30.50 in 1.8 mi Calm Calm - N/A   Mostly Cloudy
10:17 PM 10.0 °F - 6.1 °F 84% 30.50 in 1.5 mi Calm Calm - N/A   Scattered Clouds
10:23 PM 10.0 °F - 6.1 °F 84% 30.49 in 3.0 mi Calm Calm - N/A   Scattered Clouds
10:53 PM 10.0 °F - 6.1 °F 84% 30.66 in 3.0 mi Calm Calm - N/A   Partly Cloudy
11:53 PM 7.0 °F 0.1 °F 3.0 °F 84% 30.67 in 3.0 mi North 3.5 mph - 0.00 in Snow Light Snow